Flag for U.S.A. Weather past 2 weeks in Victorville, California, U.S.A.

Now
36 °F

Chilly.


Feels Like: 36 °F
Forecast: 32 / 58 °F
Wind: No wind

Location: George Air Force Base / Victorvi

Current Time: Mar 4, 2015 at 4:51:14 AM

Latest Report: Mar 4, 2015 at 4:15 AM


Visibility: 10 mi

Pressure: 30.03 "Hg

Humidity: 75%

Dew point: 28 °F

Location of VictorvilleLocation

Historic Weather in Victorville — Graph

°F

Victorville temperature yesterday

Maximum temperature yesterday: 55 °F (at 1:15 PM)
Minimum temperature yesterday: 30 °F (at 3:15 AM)
Average temperature yesterday: 44 °F

Past Weeks' High & Low Weather Summary

 TemperatureHumidityPressure
High79 °F (Feb 19, 2:55 PM)100% (Feb 22, 11:15 PM)30.28 "Hg (Feb 22, 11:15 PM)
Low30 °F (Mar 3, 3:15 AM)9% (Feb 19, 2:55 PM)29.70 "Hg (Feb 27, 3:35 PM)
Average50 °F54%29.97 "Hg
* Reported Feb 17 3:15 AM — Mar 4 3:55 AM, Victorville, Weather by CustomWeather, © 2015

Note: Actual official high and low records may vary slightly from our data, if they occured in-between our weather recording intervals... More about our weather records

Advertising

Victorville weather history for previous 24 hours

 ConditionsComfort  
Time TempWeatherWind HumidityBarometerVisibility
3:55 AM
Wed, Mar 4
34 °FChilly.No wind81%30.03 "Hg10 mi
3:35 AM36 °FChilly.No wind75%30.02 "Hg10 mi
3:15 AM36 °FChilly.No wind75%30.02 "Hg10 mi
2:55 AM37 °FChilly.3 mph75%30.02 "Hg10 mi
2:35 AM39 °FClear.3 mph70%30.01 "Hg10 mi
2:15 AM37 °FClear.No wind75%30.01 "Hg10 mi
1:55 AM37 °FPassing clouds.No wind75%30.01 "Hg10 mi
1:35 AM39 °FPassing clouds.No wind70%30.01 "Hg10 mi
1:15 AM39 °FPassing clouds.No wind70%30.00 "Hg10 mi
12:55 AM39 °FPassing clouds.No wind70%30.00 "Hg10 mi
12:35 AM39 °FMostly cloudy.No wind70%29.99 "Hg10 mi
12:15 AM37 °FPassing clouds.No wind75%29.99 "Hg10 mi
11:55 PM
Tue, Mar 3
37 °FChilly.5 mph75%29.98 "Hg10 mi
11:15 PM39 °FChilly.6 mph70%29.98 "Hg10 mi
10:55 PM39 °FChilly.3 mph70%29.98 "Hg10 mi
10:35 PM39 °FChilly.5 mph70%29.98 "Hg10 mi
10:15 PM43 °FQuite cool.5 mph66%29.98 "Hg10 mi
9:55 PM45 °FQuite cool.5 mph61%29.97 "Hg10 mi
9:35 PM43 °FQuite cool.7 mph66%29.97 "Hg10 mi
9:15 PM43 °FQuite cool.6 mph71%29.96 "Hg10 mi
8:55 PM45 °FQuite cool.6 mph61%29.95 "Hg10 mi
8:35 PM45 °FClear.12 mph61%29.94 "Hg10 mi
8:15 PM45 °FClear.8 mph57%29.94 "Hg10 mi
7:55 PM46 °FClear.7 mph57%29.92 "Hg10 mi
7:15 PM46 °FClear.5 mph53%29.91 "Hg10 mi
6:55 PM48 °FClear.5 mph43%29.90 "Hg10 mi
6:35 PM48 °FClear.7 mph40%29.89 "Hg10 mi
6:15 PM52 °FClear.5 mph32%29.88 "Hg10 mi
5:55 PM52 °FClear.5 mph32%29.88 "Hg10 mi
5:35 PM54 °FSunny.6 mph28%29.87 "Hg10 mi
5:15 PM55 °FSunny.7 mph26%29.87 "Hg10 mi
4:55 PM55 °FSunny.5 mph28%29.87 "Hg10 mi
4:35 PM55 °FSunny.7 mph26%29.87 "Hg10 mi
4:15 PM55 °FSunny.7 mph28%29.87 "Hg10 mi
3:55 PM55 °FSunny.3 mph31%29.88 "Hg10 mi
3:35 PM55 °FRefreshingly cool.5 mph31%29.88 "Hg10 mi
3:15 PM55 °FRefreshingly cool.7 mph31%29.88 "Hg10 mi
2:55 PM55 °FRefreshingly cool.7 mph33%29.88 "Hg10 mi
2:35 PM55 °FRefreshingly cool.No wind33%29.89 "Hg10 mi
2:15 PM55 °FRefreshingly cool.No wind33%29.89 "Hg10 mi
1:55 PM55 °FRefreshingly cool.8 mph33%29.90 "Hg10 mi
1:15 PM55 °FRefreshingly cool.3 mph33%29.90 "HgN/A
12:35 PM54 °FCool.No wind38%29.92 "Hg10 mi
12:15 PM54 °FCool.No wind41%29.93 "Hg10 mi
11:35 AM54 °FCool.3 mph44%29.95 "Hg10 mi
11:15 AM52 °FCool.7 mph50%29.95 "Hg10 mi
10:55 AM52 °FCool.No wind47%29.95 "Hg10 mi
10:35 AM50 °FCool.No wind50%29.96 "Hg10 mi
10:15 AM48 °FCool.3 mph58%29.96 "Hg10 mi
9:55 AM48 °FCool.No wind58%29.96 "Hg10 mi
9:35 AM46 °FCool.No wind62%29.97 "Hg10 mi
9:15 AM45 °FQuite cool.No wind66%29.97 "Hg10 mi
8:55 AM45 °FSunny.5 mph66%29.97 "Hg10 mi
8:35 AM43 °FQuite cool.6 mph76%29.96 "Hg10 mi
8:15 AM41 °FQuite cool.6 mph76%29.96 "Hg10 mi
7:55 AM39 °FChilly.7 mph81%29.96 "Hg10 mi
7:35 AM37 °FChilly.7 mph87%29.95 "Hg10 mi
7:15 AM36 °FChilly.6 mph87%29.94 "Hg10 mi
6:55 AM34 °FChilly.7 mph87%29.94 "Hg10 mi
6:35 AM32 °FChilly.6 mph93%29.93 "Hg10 mi
6:15 AM30 °FChilly.7 mph100%29.93 "Hg10 mi
5:55 AM30 °FChilly.5 mph93%29.93 "Hg7 mi
5:35 AM30 °FIce fog.5 mph93%29.93 "Hg5 mi
5:15 AM30 °FIce fog.5 mph93%29.93 "Hg4 mi
4:55 AM32 °FChilly.No wind93%29.93 "Hg7 mi
4:35 AM32 °FIce fog.No wind93%29.93 "Hg5 mi
4:15 AM30 °FIce fog.No wind93%29.93 "Hg5 mi
Weather by CustomWeather, © 2015

See weather overviewHow to use our weather pages